Location: Unspecified
(0.0000°N, 0.0000°E)
Time: 20:55:15
(UTC+00:00)

Tiros 1 despin weight - Pass Details

Date: 30 May 2022
Orbit: 591 x 639 km, 48.2° (Epoch: 25 June)

Event Time Altitude Azimuth Distance (km) Brightness Sun altitude
Rises 23:46:32 0° 357° (N) 2,801 - -68.0°
Reaches altitude 10° 23:50:30 10° 32° (NNE) 1,906 - -68.0°
Maximum altitude 23:51:46 11° 50° (NE) 1,837 - -68.1°
Drops below altitude 10° 23:53:03 10° 67° (ENE) 1,911 - -68.1°
Sets 23:57:02 0° 102° (ESE) 2,823 - -68.1°
